AFR2110 LFPO-LPPR

Flight info

Callsign AFR2110
Flight time 1h 40m
Altitude 32000
Route LGL2G LGL UT176 KURIS UN872 ERIGA FUJTI ATLEN INSID T326 ASPOR ASPO6C
Aircraft B738/M-V/N

Departure

Time 2026-05-05 14:00
Airport Paris-Orly Airport (LFPO)

Arrival

Time 2026-05-05 15:40
Airport Francisco de Sá Carneiro Airport (LPPR)
Time Latitude Longitude Altitude Speed Heading
2026-05-05 13:59 48.66354 2.02378 7140 ft 287 kts 271°
2026-05-05 14:00 48.66328 1.96336 7866 ft 292 kts 272°
2026-05-05 14:00 48.66358 1.93238 8211 ft 295 kts 272°
2026-05-05 14:00 48.66439 1.90156 8580 ft 293 kts 278°
2026-05-05 14:00 48.66882 1.87159 8881 ft 291 kts 289°
2026-05-05 14:01 48.67487 1.84207 9176 ft 294 kts 289°
2026-05-05 14:01 48.68101 1.81259 9498 ft 295 kts 289°
2026-05-05 14:01 48.68722 1.78282 9821 ft 297 kts 289°
2026-05-05 14:01 48.69349 1.75285 10011 ft 302 kts 289°
2026-05-05 14:02 48.69993 1.72196 10028 ft 313 kts 289°
2026-05-05 14:02 48.70657 1.68991 10070 ft 324 kts 288°
2026-05-05 14:02 48.71337 1.65682 10115 ft 334 kts 288°
2026-05-05 14:02 48.72045 1.62241 10220 ft 354 kts 288°
2026-05-05 14:03 48.72799 1.58609 10783 ft 366 kts 288°
2026-05-05 14:03 48.73546 1.54966 11905 ft 356 kts 288°
2026-05-05 14:03 48.74258 1.51454 13259 ft 343 kts 289°
2026-05-05 14:03 48.74829 1.47987 14295 ft 340 kts 280°
2026-05-05 14:04 48.75078 1.44371 14855 ft 350 kts 275°
2026-05-05 14:04 48.75256 1.40614 15271 ft 364 kts 274°
2026-05-05 14:04 48.75413 1.36706 15629 ft 379 kts 274°
2026-05-05 14:04 48.75582 1.32666 16104 ft 388 kts 274°
2026-05-05 14:05 48.75771 1.28563 16784 ft 393 kts 274°
2026-05-05 14:05 48.75974 1.24420 17471 ft 395 kts 274°
2026-05-05 14:05 48.76174 1.20314 18254 ft 397 kts 274°
2026-05-05 14:05 48.76368 1.16132 18941 ft 399 kts 274°
2026-05-05 14:06 48.76554 1.11925 19555 ft 404 kts 273°
2026-05-05 14:06 48.76743 1.07648 20120 ft 409 kts 274°
2026-05-05 14:06 48.76935 1.03322 20666 ft 413 kts 274°
2026-05-05 14:06 48.77130 0.98957 21213 ft 416 kts 274°
2026-05-05 14:07 48.77324 0.94565 21793 ft 419 kts 274°
2026-05-05 14:07 48.77516 0.90156 22364 ft 421 kts 273°
2026-05-05 14:07 48.77707 0.85700 22829 ft 426 kts 274°
2026-05-05 14:07 48.77899 0.81192 23257 ft 431 kts 274°
2026-05-05 14:08 48.78091 0.76638 23709 ft 434 kts 274°
2026-05-05 14:08 48.78282 0.72069 24163 ft 434 kts 274°
2026-05-05 14:08 48.78470 0.67493 24598 ft 436 kts 273°
2026-05-05 14:08 48.78660 0.62888 24957 ft 439 kts 273°
2026-05-05 14:09 48.78650 0.58252 25240 ft 443 kts 263°
2026-05-05 14:09 48.78014 0.53680 25620 ft 443 kts 251°
2026-05-05 14:09 48.76765 0.49424 26057 ft 442 kts 238°
2026-05-05 14:09 48.74967 0.45656 26448 ft 441 kts 229°
2026-05-05 14:10 48.72987 0.42084 26795 ft 444 kts 228°
2026-05-05 14:10 48.70966 0.38544 27139 ft 445 kts 227°
2026-05-05 14:10 48.68932 0.34998 27451 ft 447 kts 227°
2026-05-05 14:10 48.66902 0.31423 27763 ft 449 kts 227°
2026-05-05 14:11 48.64876 0.27813 28086 ft 451 kts 228°
2026-05-05 14:11 48.62871 0.24212 28373 ft 454 kts 227°
2026-05-05 14:11 48.60798 0.20537 28659 ft 454 kts 227°
2026-05-05 14:11 48.58760 0.16963 29007 ft 455 kts 227°
2026-05-05 14:12 48.56692 0.13350 29408 ft 454 kts 227°
2026-05-05 14:12 48.54631 0.09732 29810 ft 454 kts 227°
2026-05-05 14:12 48.52582 0.06117 30180 ft 453 kts 227°
2026-05-05 14:12 48.50537 0.02513 30547 ft 452 kts 227°
2026-05-05 14:13 48.48484 -0.01094 30956 ft 453 kts 227°
2026-05-05 14:13 48.46432 -0.04681 31357 ft 451 kts 226°
2026-05-05 14:13 48.44387 -0.08242 31745 ft 449 kts 226°
2026-05-05 14:13 48.42338 -0.11814 31868 ft 453 kts 226°
2026-05-05 14:14 48.38219 -0.18998 31878 ft 449 kts 226°
2026-05-05 14:14 48.34153 -0.26064 31886 ft 446 kts 226°
2026-05-05 14:15 48.30078 -0.33116 31884 ft 447 kts 226°
2026-05-05 14:15 48.26015 -0.40146 31877 ft 445 kts 226°
2026-05-05 14:16 48.21948 -0.47154 31888 ft 445 kts 226°
2026-05-05 14:16 48.17866 -0.54169 31896 ft 448 kts 226°
2026-05-05 14:17 48.13769 -0.61195 31899 ft 448 kts 226°
2026-05-05 14:17 48.09669 -0.68208 31898 ft 447 kts 226°
2026-05-05 14:18 48.05598 -0.75152 31890 ft 447 kts 226°
2026-05-05 14:18 48.01492 -0.82133 31889 ft 447 kts 226°
2026-05-05 14:19 47.97380 -0.89111 31904 ft 449 kts 226°
2026-05-05 14:19 47.93245 -0.96107 31918 ft 450 kts 226°
2026-05-05 14:20 47.89102 -1.03102 31891 ft 449 kts 226°
2026-05-05 14:20 47.84973 -1.10050 31873 ft 449 kts 225°
2026-05-05 14:21 47.80802 -1.17052 31875 ft 456 kts 225°
2026-05-05 14:21 47.76561 -1.24155 31893 ft 462 kts 225°
2026-05-05 14:22 47.72257 -1.31341 31890 ft 469 kts 225°
2026-05-05 14:22 47.67895 -1.38606 31878 ft 473 kts 225°
2026-05-05 14:23 47.63519 -1.45880 31903 ft 471 kts 225°
2026-05-05 14:23 47.59027 -1.52806 31895 ft 465 kts 216°
2026-05-05 14:24 47.53976 -1.58758 31896 ft 465 kts 215°
2026-05-05 14:24 47.48852 -1.64659 31888 ft 469 kts 215°
2026-05-05 14:25 47.43717 -1.70589 31895 ft 468 kts 215°
2026-05-05 14:25 47.38600 -1.76510 31901 ft 467 kts 215°
2026-05-05 14:26 47.33477 -1.82394 31902 ft 468 kts 215°
2026-05-05 14:26 47.28313 -1.88313 31920 ft 471 kts 215°
2026-05-05 14:27 47.23139 -1.94244 31916 ft 470 kts 215°
2026-05-05 14:27 47.17979 -2.00130 31919 ft 470 kts 215°
2026-05-05 14:28 47.12806 -2.06018 31938 ft 471 kts 214°
2026-05-05 14:28 47.07614 -2.11922 31910 ft 474 kts 214°
2026-05-05 14:29 47.02406 -2.17820 31911 ft 473 kts 214°
2026-05-05 14:29 46.97201 -2.23702 31911 ft 473 kts 215°
2026-05-05 14:30 46.91976 -2.29589 31923 ft 473 kts 214°
2026-05-05 14:30 46.86734 -2.35472 31921 ft 477 kts 213°
2026-05-05 14:31 46.81126 -2.40617 31918 ft 477 kts 208°
2026-05-05 14:31 46.75465 -2.45571 31922 ft 472 kts 207°
2026-05-05 14:32 46.69831 -2.50471 31926 ft 472 kts 207°
2026-05-05 14:32 46.64236 -2.55364 31925 ft 472 kts 207°
2026-05-05 14:33 46.58597 -2.60277 31928 ft 472 kts 207°
2026-05-05 14:33 46.52949 -2.65171 31939 ft 473 kts 207°
2026-05-05 14:34 46.47307 -2.70062 31932 ft 472 kts 207°
2026-05-05 14:34 46.41671 -2.74934 31932 ft 471 kts 207°
2026-05-05 14:35 46.36031 -2.79792 31940 ft 472 kts 207°
2026-05-05 14:35 46.30389 -2.84641 31940 ft 472 kts 208°
2026-05-05 14:36 46.24954 -2.89934 31944 ft 473 kts 217°
2026-05-05 14:36 46.19912 -2.96061 31950 ft 474 kts 218°
2026-05-05 14:37 46.14885 -3.02226 31950 ft 474 kts 218°
2026-05-05 14:37 46.09849 -3.08352 31949 ft 470 kts 219°
2026-05-05 14:38 46.04888 -3.14362 31945 ft 465 kts 219°
2026-05-05 14:38 45.99916 -3.20388 31953 ft 470 kts 219°
2026-05-05 14:39 45.94895 -3.26452 31950 ft 471 kts 219°
2026-05-05 14:39 45.89873 -3.32502 31959 ft 470 kts 219°
2026-05-05 14:40 45.84871 -3.38517 31956 ft 468 kts 218°
2026-05-05 14:40 45.79879 -3.44502 31952 ft 468 kts 219°
2026-05-05 14:41 45.74916 -3.50436 31958 ft 467 kts 219°
2026-05-05 14:41 45.69928 -3.56390 31966 ft 467 kts 219°
2026-05-05 14:42 45.64934 -3.62335 31962 ft 467 kts 219°
2026-05-05 14:42 45.59947 -3.68257 31965 ft 467 kts 219°
2026-05-05 14:43 45.54952 -3.74178 31970 ft 466 kts 219°
2026-05-05 14:43 45.49959 -3.80080 31974 ft 466 kts 219°
2026-05-05 14:44 45.44950 -3.85984 31974 ft 467 kts 219°
2026-05-05 14:44 45.39944 -3.91872 31973 ft 467 kts 219°
2026-05-05 14:45 45.34940 -3.97746 31970 ft 466 kts 219°
2026-05-05 14:45 45.29939 -4.03602 31985 ft 465 kts 220°
2026-05-05 14:46 45.24939 -4.09439 31976 ft 466 kts 220°
2026-05-05 14:46 45.20782 -4.14284 31977 ft 465 kts 220°
2026-05-05 14:47 45.15778 -4.20107 31977 ft 466 kts 220°
2026-05-05 14:47 45.09945 -4.26870 31984 ft 466 kts 220°
2026-05-05 14:48 45.05750 -4.31726 31984 ft 465 kts 220°
2026-05-05 14:48 45.00745 -4.37506 31984 ft 464 kts 220°
2026-05-05 14:49 44.95747 -4.43264 31992 ft 463 kts 219°
2026-05-05 14:49 44.90745 -4.49014 31994 ft 464 kts 220°
2026-05-05 14:50 44.85773 -4.54717 31991 ft 463 kts 220°
2026-05-05 14:50 44.80775 -4.60436 31991 ft 463 kts 220°
2026-05-05 14:51 44.75760 -4.66159 31992 ft 464 kts 220°
2026-05-05 14:51 44.70746 -4.71872 31992 ft 464 kts 220°
2026-05-05 14:52 44.65744 -4.77555 32002 ft 464 kts 220°
2026-05-05 14:52 44.60717 -4.83252 32000 ft 464 kts 220°
2026-05-05 14:53 44.55684 -4.88945 32006 ft 465 kts 220°
2026-05-05 14:53 44.50656 -4.94617 32007 ft 466 kts 220°
2026-05-05 14:54 44.45455 -5.00021 32000 ft 465 kts 216°
2026-05-05 14:54 44.40130 -5.05156 32008 ft 465 kts 216°
2026-05-05 14:55 44.34888 -5.10464 32011 ft 466 kts 217°
2026-05-05 14:55 44.29632 -5.15769 32012 ft 467 kts 217°
2026-05-05 14:56 44.24353 -5.20996 32016 ft 464 kts 217°
2026-05-05 14:56 44.19115 -5.26220 32017 ft 462 kts 217°
2026-05-05 14:57 44.13880 -5.31434 32017 ft 463 kts 217°
2026-05-05 14:57 44.08629 -5.36631 32015 ft 464 kts 218°
2026-05-05 14:58 44.03371 -5.41834 32021 ft 463 kts 218°
2026-05-05 14:58 43.98161 -5.46979 32019 ft 462 kts 217°
2026-05-05 14:59 43.92920 -5.52140 32045 ft 462 kts 217°
2026-05-05 14:59 43.87671 -5.57298 32027 ft 462 kts 218°
2026-05-05 15:00 43.83287 -5.61596 32031 ft 459 kts 218°
2026-05-05 15:00 43.77234 -5.67523 32034 ft 459 kts 218°
2026-05-05 15:01 43.72010 -5.72623 32033 ft 460 kts 218°
2026-05-05 15:01 43.66759 -5.77738 32039 ft 462 kts 218°
2026-05-05 15:02 43.61503 -5.82847 32050 ft 462 kts 218°
2026-05-05 15:02 43.56247 -5.87947 32064 ft 461 kts 218°
2026-05-05 15:03 43.50991 -5.93034 32066 ft 462 kts 218°
2026-05-05 15:03 43.45732 -5.98111 32065 ft 462 kts 219°
2026-05-05 15:04 43.40487 -6.03164 32061 ft 459 kts 219°
2026-05-05 15:04 43.35256 -6.08197 32062 ft 459 kts 219°
2026-05-05 15:05 43.27370 -6.15761 32053 ft 463 kts 219°
2026-05-05 15:06 43.22091 -6.20808 32062 ft 462 kts 220°
2026-05-05 15:06 43.16823 -6.25833 32081 ft 461 kts 220°
2026-05-05 15:07 43.11564 -6.30844 32085 ft 461 kts 220°
2026-05-05 15:07 43.06315 -6.35837 32081 ft 462 kts 220°
2026-05-05 15:08 43.01038 -6.40835 32057 ft 460 kts 220°
2026-05-05 15:08 42.95788 -6.45802 32036 ft 458 kts 220°
2026-05-05 15:09 42.90536 -6.50766 32055 ft 461 kts 220°
2026-05-05 15:09 42.85241 -6.55756 32039 ft 464 kts 220°
2026-05-05 15:10 42.79928 -6.60748 32038 ft 463 kts 220°
2026-05-05 15:10 42.74640 -6.65708 32058 ft 460 kts 220°
2026-05-05 15:11 42.69369 -6.70647 32058 ft 460 kts 220°
2026-05-05 15:11 42.64091 -6.75577 32032 ft 460 kts 220°
2026-05-05 15:12 42.58825 -6.80485 32040 ft 459 kts 220°
2026-05-05 15:12 42.53543 -6.85404 32047 ft 462 kts 221°
2026-05-05 15:13 42.48273 -6.90297 32038 ft 463 kts 220°
2026-05-05 15:13 42.42964 -6.95212 32059 ft 462 kts 221°
2026-05-05 15:14 42.37660 -7.00118 32028 ft 461 kts 221°
2026-05-05 15:14 42.32376 -7.04992 32062 ft 459 kts 221°
2026-05-05 15:15 42.27478 -7.10338 32073 ft 445 kts 235°
2026-05-05 15:15 42.24016 -7.17083 32077 ft 435 kts 245°
2026-05-05 15:16 42.20838 -7.24042 32037 ft 436 kts 246°
2026-05-05 15:16 42.17640 -7.30998 32061 ft 437 kts 245°
2026-05-05 15:17 42.14419 -7.37923 32036 ft 434 kts 245°
2026-05-05 15:17 42.11236 -7.44796 32052 ft 431 kts 246°
2026-05-05 15:17 42.09654 -7.48223 31588 ft 430 kts 246°
2026-05-05 15:18 42.08063 -7.51666 30805 ft 435 kts 246°
2026-05-05 15:18 42.06462 -7.55110 30184 ft 433 kts 246°
2026-05-05 15:18 42.04859 -7.58523 29537 ft 429 kts 246°
2026-05-05 15:18 42.03292 -7.61858 28920 ft 424 kts 245°
2026-05-05 15:19 42.01728 -7.65194 28358 ft 419 kts 245°
2026-05-05 15:19 42.00194 -7.68476 27889 ft 412 kts 246°
2026-05-05 15:19 41.98666 -7.71753 27169 ft 413 kts 246°
2026-05-05 15:19 41.97144 -7.75012 26570 ft 411 kts 246°
2026-05-05 15:20 41.95624 -7.78248 26002 ft 408 kts 246°
2026-05-05 15:20 41.94115 -7.81453 25443 ft 405 kts 246°
2026-05-05 15:20 41.92615 -7.84633 24861 ft 402 kts 246°
2026-05-05 15:20 41.91128 -7.87794 24348 ft 399 kts 246°
2026-05-05 15:21 41.89653 -7.90932 23817 ft 397 kts 246°
2026-05-05 15:21 41.88182 -7.94053 23244 ft 395 kts 246°
2026-05-05 15:21 41.86714 -7.97159 22661 ft 392 kts 245°
2026-05-05 15:21 41.85257 -8.00233 22089 ft 388 kts 245°
2026-05-05 15:22 41.83819 -8.03267 21590 ft 384 kts 245°
2026-05-05 15:22 41.82252 -8.06179 21090 ft 388 kts 236°
2026-05-05 15:22 41.80310 -8.08721 20558 ft 395 kts 225°
2026-05-05 15:22 41.78011 -8.10788 20001 ft 400 kts 216°
2026-05-05 15:23 41.75582 -8.12616 19460 ft 400 kts 214°
2026-05-05 15:23 41.73152 -8.14412 18905 ft 399 kts 214°
2026-05-05 15:23 41.70706 -8.16157 18366 ft 400 kts 209°
2026-05-05 15:23 41.68109 -8.17495 17777 ft 401 kts 204°
2026-05-05 15:24 41.65478 -8.18720 17195 ft 399 kts 203°
2026-05-05 15:24 41.62902 -8.19905 16659 ft 395 kts 203°
2026-05-05 15:24 41.60325 -8.21075 16126 ft 383 kts 202°
2026-05-05 15:24 41.57851 -8.22191 15606 ft 367 kts 202°
2026-05-05 15:25 41.55485 -8.23265 15101 ft 353 kts 202°
2026-05-05 15:25 41.53208 -8.24306 14659 ft 339 kts 202°
2026-05-05 15:25 41.51018 -8.25308 14205 ft 327 kts 202°
2026-05-05 15:25 41.48900 -8.26275 13754 ft 316 kts 203°
2026-05-05 15:26 41.46851 -8.27207 13287 ft 306 kts 202°
2026-05-05 15:26 41.44868 -8.28110 12863 ft 297 kts 202°
2026-05-05 15:26 41.42947 -8.28983 12482 ft 289 kts 203°
2026-05-05 15:26 41.41042 -8.29852 12090 ft 290 kts 203°
2026-05-05 15:27 41.39133 -8.30723 11693 ft 291 kts 204°
2026-05-05 15:27 41.37214 -8.31596 11301 ft 292 kts 204°
2026-05-05 15:27 41.35290 -8.32470 10965 ft 290 kts 202°
2026-05-05 15:27 41.33417 -8.33313 10856 ft 275 kts 204°
2026-05-05 15:28 41.31652 -8.34105 10747 ft 262 kts 202°
2026-05-05 15:28 41.29950 -8.34874 10621 ft 255 kts 203°
2026-05-05 15:28 41.28261 -8.35645 10266 ft 258 kts 202°
2026-05-05 15:28 41.26555 -8.36423 9914 ft 261 kts 202°
2026-05-05 15:29 41.24827 -8.37206 9554 ft 263 kts 202°
2026-05-05 15:29 41.23092 -8.37988 9188 ft 264 kts 202°
2026-05-05 15:29 41.21343 -8.38778 8818 ft 266 kts 202°
2026-05-05 15:29 41.19576 -8.39576 8399 ft 269 kts 203°
2026-05-05 15:30 41.17794 -8.40381 7994 ft 272 kts 202°
2026-05-05 15:30 41.15992 -8.41193 7574 ft 274 kts 202°
2026-05-05 15:30 41.14187 -8.42006 7175 ft 275 kts 202°
2026-05-05 15:30 41.12368 -8.42825 6780 ft 277 kts 201°
2026-05-05 15:31 41.10543 -8.43649 6414 ft 278 kts 202°
2026-05-05 15:31 41.08712 -8.44472 6023 ft 276 kts 202°
2026-05-05 15:31 41.06924 -8.45273 5616 ft 267 kts 203°
2026-05-05 15:31 41.05200 -8.46046 5232 ft 258 kts 201°
2026-05-05 15:32 41.03520 -8.46799 4837 ft 252 kts 204°
2026-05-05 15:32 41.01928 -8.47683 4426 ft 246 kts 215°
2026-05-05 15:32 41.00673 -8.49174 4048 ft 241 kts 239°
2026-05-05 15:32 40.99957 -8.51020 4015 ft 213 kts 257°
2026-05-05 15:33 40.99646 -8.52863 3951 ft 202 kts 261°
2026-05-05 15:33 40.99371 -8.54659 3857 ft 199 kts 263°
2026-05-05 15:33 40.99113 -8.56389 3722 ft 185 kts 262°
2026-05-05 15:33 40.98870 -8.58047 3572 ft 181 kts 263°
2026-05-05 15:34 40.98918 -8.59694 3499 ft 175 kts 290°
2026-05-05 15:34 40.99537 -8.61028 3339 ft 164 kts 318°
2026-05-05 15:34 41.00492 -8.61726 3217 ft 149 kts 342°
2026-05-05 15:34 41.01505 -8.62000 3030 ft 153 kts 344°
2026-05-05 15:35 41.02523 -8.62275 2987 ft 148 kts 343°
2026-05-05 15:35 41.03513 -8.62539 3000 ft 143 kts 344°
2026-05-05 15:35 41.04479 -8.62796 2983 ft 139 kts 345°
2026-05-05 15:35 41.05420 -8.63048 3007 ft 138 kts 344°
2026-05-05 15:36 41.06370 -8.63298 3017 ft 143 kts 344°
2026-05-05 15:36 41.07373 -8.63561 3035 ft 150 kts 345°
2026-05-05 15:36 41.08419 -8.63832 3094 ft 154 kts 344°
2026-05-05 15:36 41.09503 -8.64119 2990 ft 163 kts 345°
2026-05-05 15:37 41.10591 -8.64407 2822 ft 157 kts 346°
2026-05-05 15:37 41.11657 -8.64687 2632 ft 155 kts 344°
2026-05-05 15:37 41.12700 -8.64960 2441 ft 151 kts 345°
2026-05-05 15:37 41.13710 -8.65223 2268 ft 144 kts 343°
2026-05-05 15:38 41.14669 -8.65475 2086 ft 138 kts 343°
2026-05-05 15:38 41.15288 -8.65637 1944 ft 135 kts 342°
2026-05-05 15:38 41.16195 -8.65874 1757 ft 131 kts 343°
2026-05-05 15:38 41.17079 -8.66105 1564 ft 129 kts 344°
2026-05-05 15:39 41.17951 -8.66332 1368 ft 128 kts 344°
2026-05-05 15:39 41.18815 -8.66556 1225 ft 129 kts 345°
2026-05-05 15:39 41.19706 -8.66786 1080 ft 133 kts 344°
2026-05-05 15:39 41.20628 -8.67026 889 ft 136 kts 345°
2026-05-05 15:40 41.21559 -8.67274 775 ft 137 kts 347°
2026-05-05 15:40 41.22489 -8.67472 538 ft 133 kts 343°
2026-05-05 15:40 41.23352 -8.67717 300 ft 119 kts 335°
2026-05-05 15:40 41.23934 -8.67901 252 ft 49 kts 352°
2026-05-05 15:41 41.24138 -8.67956 246 ft 10 kts 350°
2026-05-05 15:41 41.24192 -8.67970 247 ft 7 kts 348°
2026-05-05 15:41 41.24263 -8.67990 248 ft 14 kts 348°
2026-05-05 15:41 41.24427 -8.68034 245 ft 21 kts 350°
2026-05-05 15:42 41.24502 -8.68050 244 ft 12 kts 350°
2026-05-05 15:42 41.24596 -8.68069 242 ft 6 kts 353°
2026-05-05 15:42 41.24644 -8.68083 240 ft 21 kts 348°
2026-05-05 15:42 41.24742 -8.68148 237 ft 20 kts 287°
2026-05-05 15:43 41.24626 -8.68258 237 ft 21 kts 198°
2026-05-05 15:43 41.24502 -8.68288 239 ft 19 kts 175°
2026-05-05 15:43 41.24377 -8.68259 241 ft 18 kts 169°
2026-05-05 15:43 41.24243 -8.68223 241 ft 20 kts 169°
2026-05-05 15:44 41.24128 -8.68193 245 ft 19 kts 171°
2026-05-05 15:44 41.23953 -8.68147 246 ft 25 kts 171°
2026-05-05 15:44 41.23846 -8.68118 249 ft 12 kts 169°
2026-05-05 15:44 41.23806 -8.68105 251 ft 0 kts 160°
2026-05-05 15:45 41.23804 -8.68104 252 ft 5 kts 161°
2026-05-05 15:45 41.23773 -8.68097 253 ft 0 kts 181°